Back to catalog

STARLINK-30526

AliveCommunicationsVLEO
NORAD 58006·PAYLOAD·🇺🇸 United States

Launched Oct 5, 2023 from Cape Canaveral Space Force Station

Loading…

Next Passes (next 24 hours)

TLE

FreshSource: CelesTrak SupGP

Epoch: Sep 14, 2026, 14:21 UTC

1 58006C 23153R   26257.59840278 -.00048482  00000+0 -12997-2 0  2572
2 58006  43.0026  50.1129 0001671 270.3747 127.9018 15.37171612    12

Track STARLINK-30526 in real time with AllMySat

Download on the App Store